• In Hungary
  • List of Countries
  • For 7 days
  • Water Temperature
  • Satellite Maps
  • Weather Map
  • News
  • Weather Widgets
  • user-avatar
    Login

    Hourly Weather Kubysh-Klyuch

    Today, 21 September, Friday

    Time Temperature Precipitation Wind Pressure Humidity
    00:00 +9°C° 0.1 mm 1 mps 744 mmHg 92%
    01:00 +9°C° 0 mm 1 mps 745 mmHg 92%
    02:00 +9°C° 0 mm 1 mps 745 mmHg 92%
    03:00 +8°C° 0 mm 1 mps 745 mmHg 91%
    04:00 +8°C° 0 mm 1 mps 746 mmHg 91%
    05:00 +8°C° 0 mm 1 mps 746 mmHg 91%
    06:00 +8°C° 0 mm 1 mps 746 mmHg 90%
    07:00 +9°C° 0 mm 1 mps 747 mmHg 85%
    08:00 +11°C° 0 mm 1 mps 747 mmHg 80%
    09:00 +12°C° 0 mm 1 mps 748 mmHg 75%
    10:00 +13°C° 0 mm 1 mps 748 mmHg 74%
    11:00 +14°C° 0 mm 1 mps 748 mmHg 74%
    12:00 +14°C° 0 mm 2 mps 748 mmHg 73%
    13:00 +15°C° 0 mm 2 mps 748 mmHg 75%
    14:00 +15°C° 0 mm 2 mps 748 mmHg 77%
    15:00 +16°C° 0 mm 3 mps 748 mmHg 78%
    16:00 +15°C° 0 mm 2 mps 749 mmHg 84%
    17:00 +14°C° 0 mm 2 mps 749 mmHg 89%
    18:00 +13°C° 0 mm 2 mps 749 mmHg 94%
    19:00 +13°C° 0 mm 2 mps 749 mmHg 95%
    20:00 +13°C° 0 mm 2 mps 749 mmHg 95%
    21:00 +12°C° 0 mm 1 mps 750 mmHg 95%
    22:00 +13°C° 0 mm 2 mps 750 mmHg 95%
    23:00 +13°C° 0 mm 2 mps 750 mmHg 95%

    Tomorrow, 22 September, Saturday

    Time Temperature Precipitation Wind Pressure Humidity
    00:00 +13°C° 0 mm 2 mps 750 mmHg 95%
    01:00 +13°C° 0 mm 2 mps 750 mmHg 95%
    02:00 +13°C° 0 mm 2 mps 750 mmHg 95%
    03:00 +12°C° 0 mm 2 mps 750 mmHg 96%
    04:00 +12°C° 0 mm 2 mps 750 mmHg 96%
    05:00 +12°C° 0 mm 2 mps 750 mmHg 96%
    06:00 +12°C° 0 mm 2 mps 751 mmHg 97%
    07:00 +14°C° 0 mm 2 mps 751 mmHg 92%
    08:00 +16°C° 0 mm 2 mps 751 mmHg 87%
    09:00 +18°C° 0 mm 2 mps 751 mmHg 83%
    10:00 +19°C° 0 mm 2 mps 751 mmHg 78%
    11:00 +20°C° 0 mm 3 mps 751 mmHg 72%
    12:00 +22°C° 0 mm 3 mps 751 mmHg 67%
    13:00 +22°C° 0 mm 3 mps 751 mmHg 66%
    14:00 +23°C° 0 mm 2 mps 751 mmHg 65%
    15:00 +24°C° 0 mm 2 mps 750 mmHg 64%
    16:00 +21°C° 0 mm 2 mps 750 mmHg 71%
    17:00 +19°C° 0 mm 2 mps 750 mmHg 77%
    18:00 +18°C° 0 mm 2 mps 750 mmHg 84%
    19:00 +17°C° 0 mm 2 mps 750 mmHg 86%
    20:00 +17°C° 0 mm 2 mps 750 mmHg 88%
    21:00 +16°C° 0 mm 2 mps 750 mmHg 90%
    22:00 +16°C° 0 mm 2 mps 750 mmHg 91%
    23:00 +15°C° 0 mm 2 mps 750 mmHg 91%

    Day after tomorrow, 23 September, Sunday

    Time Temperature Precipitation Wind Pressure Humidity
    00:00 +15°C° 0 mm 2 mps 750 mmHg 92%
    01:00 +15°C° 0 mm 2 mps 750 mmHg 92%
    02:00 +14°C° 0 mm 2 mps 750 mmHg 93%
    03:00 +14°C° 0 mm 2 mps 750 mmHg 93%
    04:00 +14°C° 0 mm 2 mps 750 mmHg 94%
    05:00 +14°C° 0 mm 2 mps 750 mmHg 94%
    06:00 +14°C° 0 mm 2 mps 750 mmHg 94%
    07:00 +14°C° 0 mm 3 mps 750 mmHg 88%
    08:00 +17°C° 0 mm 3 mps 750 mmHg 82%
    09:00 +19°C° 0 mm 4 mps 749 mmHg 76%
    10:00 +20°C° 0 mm 4 mps 749 mmHg 71%
    11:00 +21°C° 0 mm 5 mps 749 mmHg 66%
    12:00 +22°C° 0 mm 5 mps 749 mmHg 61%
    13:00 +22°C° 0 mm 5 mps 748 mmHg 61%
    14:00 +22°C° 0 mm 5 mps 748 mmHg 60%
    15:00 +22°C° 0 mm 5 mps 748 mmHg 60%
    16:00 +20°C° 0 mm 5 mps 747 mmHg 65%
    17:00 +19°C° 0 mm 5 mps 747 mmHg 70%
    18:00 +18°C° 0 mm 4 mps 747 mmHg 75%
    19:00 +17°C° 0 mm 4 mps 747 mmHg 76%
    20:00 +16°C° 0 mm 5 mps 747 mmHg 77%
    21:00 +15°C° 0 mm 5 mps 747 mmHg 78%
    22:00 +15°C° 0 mm 5 mps 746 mmHg 78%
    23:00 +15°C° 0 mm 5 mps 746 mmHg 79%

    24 September, Monday

    Time Temperature Precipitation Wind Pressure Humidity
    00:00 +15°C° 0 mm 5 mps 745 mmHg 79%
    01:00 +14°C° 0 mm 5 mps 745 mmHg 78%
    02:00 +14°C° 0 mm 5 mps 745 mmHg 77%
    03:00 +13°C° 0 mm 5 mps 744 mmHg 76%
    04:00 +13°C° 0 mm 5 mps 744 mmHg 74%
    05:00 +13°C° 0 mm 5 mps 744 mmHg 72%
    06:00 +12°C° 0 mm 5 mps 744 mmHg 70%
    07:00 +14°C° 0 mm 5 mps 744 mmHg 65%
    08:00 +15°C° 0 mm 6 mps 743 mmHg 61%
    09:00 +16°C° 0 mm 6 mps 743 mmHg 56%
    10:00 +17°C° 0 mm 6 mps 743 mmHg 53%
    11:00 +19°C° 0 mm 6 mps 743 mmHg 50%
    12:00 +20°C° 0 mm 6 mps 743 mmHg 47%
    13:00 +20°C° 0 mm 6 mps 743 mmHg 49%
    14:00 +20°C° 0 mm 5 mps 743 mmHg 50%
    15:00 +20°C° 0 mm 5 mps 744 mmHg 51%
    16:00 +19°C° 0 mm 4 mps 744 mmHg 56%
    17:00 +17°C° 0 mm 3 mps 744 mmHg 60%
    18:00 +16°C° 0 mm 2 mps 745 mmHg 65%
    19:00 +15°C° 0 mm 2 mps 745 mmHg 68%
    20:00 +14°C° 0 mm 2 mps 745 mmHg 71%
    21:00 +13°C° 0 mm 2 mps 745 mmHg 75%
    22:00 +13°C° 0 mm 2 mps 745 mmHg 76%
    23:00 +13°C° 0 mm 2 mps 745 mmHg 78%

    25 September, Tuesday

    Time Temperature Precipitation Wind Pressure Humidity
    00:00 +12°C° 0 mm 2 mps 745 mmHg 80%
    01:00 +12°C° 0 mm 2 mps 745 mmHg 79%
    02:00 +13°C° 0 mm 2 mps 745 mmHg 78%
    03:00 +12°C° 0 mm 3 mps 744 mmHg 77%
    04:00 +12°C° 0 mm 3 mps 744 mmHg 76%
    05:00 +12°C° 0 mm 3 mps 744 mmHg 74%
    06:00 +11°C° 0 mm 4 mps 744 mmHg 73%
    07:00 +13°C° 0 mm 5 mps 744 mmHg 73%
    08:00 +14°C° 0 mm 6 mps 744 mmHg 73%
    09:00 +16°C° 0 mm 7 mps 743 mmHg 73%
    10:00 +16°C° 0 mm 7 mps 743 mmHg 70%
    11:00 +17°C° 0 mm 7 mps 743 mmHg 67%
    12:00 +18°C° 0 mm 8 mps 743 mmHg 64%
    13:00 +18°C° 0 mm 7 mps 743 mmHg 65%
    14:00 +18°C° 0 mm 7 mps 743 mmHg 65%
    15:00 +17°C° 0 mm 6 mps 743 mmHg 65%
    16:00 +16°C° 0 mm 6 mps 743 mmHg 69%
    17:00 +15°C° 0 mm 5 mps 743 mmHg 73%
    18:00 +14°C° 0 mm 5 mps 743 mmHg 76%
    19:00 +14°C° 0 mm 5 mps 743 mmHg 74%
    20:00 +13°C° 0 mm 5 mps 743 mmHg 71%
    21:00 +13°C° 0 mm 5 mps 743 mmHg 69%
    22:00 +13°C° 0 mm 5 mps 743 mmHg 68%
    23:00 +13°C° 0 mm 6 mps 743 mmHg 67%

    26 September, Wednesday

    Time Temperature Precipitation Wind Pressure Humidity
    00:00 +11°C° 0 mm 6 mps 743 mmHg 66%
    01:00 +11°C° 0.3 mm 6 mps 743 mmHg 70%
    02:00 +11°C° 0.3 mm 6 mps 743 mmHg 73%
    03:00 +10°C° 0.3 mm 6 mps 743 mmHg 77%
    04:00 +10°C° 0.7 mm 6 mps 742 mmHg 80%
    05:00 +10°C° 0.7 mm 7 mps 742 mmHg 83%
    06:00 +9°C° 0.7 mm 7 mps 742 mmHg 86%
    07:00 +9°C° 0.8 mm 7 mps 742 mmHg 85%
    08:00 +9°C° 0.8 mm 8 mps 742 mmHg 85%
    09:00 +9°C° 0.8 mm 8 mps 742 mmHg 85%
    10:00 +10°C° 0.3 mm 8 mps 743 mmHg 83%
    11:00 +10°C° 0.3 mm 8 mps 743 mmHg 81%
    12:00 +10°C° 0.3 mm 8 mps 743 mmHg 78%
    13:00 +11°C° 0.1 mm 7 mps 743 mmHg 74%
    14:00 +11°C° 0.1 mm 7 mps 744 mmHg 71%
    15:00 +11°C° 0.1 mm 7 mps 744 mmHg 67%
    16:00 +10°C° 0 mm 6 mps 744 mmHg 69%
    17:00 +9°C° 0 mm 6 mps 745 mmHg 70%
    18:00 +8°C° 0 mm 5 mps 745 mmHg 72%
    19:00 +8°C° 0 mm 5 mps 746 mmHg 73%
    20:00 +7°C° 0 mm 6 mps 746 mmHg 73%
    21:00 +7°C° 0 mm 6 mps 747 mmHg 73%
    22:00 +7°C° 0 mm 5 mps 747 mmHg 75%
    23:00 +7°C° 0 mm 5 mps 747 mmHg 76%
    Show more